Orbital Elements at Epoch 2459200.5 (2020-Dec-17.0) TDB
Reference: JPL 38 (heliocentric ecliptic J2000)
Element | Value | Uncertainty (1-sigma) | Units |
e | .09055035458880267 | 1.3477e-08 | |
a | 2.765360683350181 | 1.0395e-08 | au |
q | 2.514956292906889 | 3.6121e-08 | au |
i | 6.080567907098424 | 1.4132e-06 | deg |
node | 133.3611144916528 | 1.6546e-05 | deg |
peri | 181.3026908907449 | 2.5387e-05 | deg |
M | 106.4501434709929 | 1.4223e-05 | deg |
tp | 2458703.827798834968 (2019-Aug-08.32779884) | 6.5837e-05 | TDB |
period | 1679.678266174757 4.60 | 9.4705e-06 2.593e-08 | d yr |
n | .2143267596239439 | 1.2084e-09 | deg/d |
Q | 3.015765073793474 | 1.1336e-08 | au |
|
| | Orbit Determination Parameters
Additional Information
|